Location: Augirein
(42.9320°N, 0.9181°E)
Time: 20:39:08
(UTC+00:00)

USA 281 - Pass Details

Date: 20 June 2021
Orbit: 1078 x 1081 km, 106.0° (Epoch: 18 July)

Event Time Altitude Azimuth Distance (km) Brightness Sun altitude
Rises 02:08:23 0° 137° (SE) 3,867 6.0 -17.2°
Reaches altitude 10° 02:10:56 10° 132° (SE) 2,915 5.4 -16.9°
Maximum altitude 02:17:14 52° 59° (ENE) 1,326 4.1 -16.3°
Drops below altitude 10° 02:23:34 10° 345° (NNW) 2,931 6.1 -15.6°
Sets 02:26:09 0° 341° (NNW) 3,890 6.7 -15.4°
